Skip Page Navigation
NASA JPL Caltech
NASA Logo - Jet Propulsion Laboratory + View the NASA Portal
+ Center for Near-Earth Object Studies
JPL Home Earth Solar System Stars & Galaxies Technology
JPL Solar System Dynamics
BODIES ORBITS EPHEMERIDES TOOLS PHYSICAL DATA DISCOVERY FAQ SITE MAP
JPL Small-Body Database Browser
Search: [ help ]  
85076 (1451 T-2)
Classification: Main-belt Asteroid          SPK-ID: 2085076
Ephemeris | Orbit Diagram | Orbital Elements | Mission Design | Physical Parameters | Discovery Circumstances ]

[ show orbit diagram ]
Orbital Elements at Epoch 2459000.5 (2020-May-31.0) TDB
Reference: JPL 18 (heliocentric ecliptic J2000)
 Element Value Uncertainty (1-sigma)   Units 
e .1342252159400769 3.1836e-08  
a 2.566535016115235 1.2001e-08 au
q 2.222041299359399 7.9548e-08 au
i 15.37251466925575 4.5508e-06 deg
node 187.012359582252 1.5226e-05 deg
peri 227.1871508296297 2.5624e-05 deg
M 86.89812349518826 2.0583e-05 deg
tp 2458637.984053574166
(2019-Jun-03.48405357)
8.4938e-05 TDB
period 1501.824613284389
4.11
1.0534e-05
2.884e-08
d
yr
n .2397084165591775 1.6813e-09 deg/d
Q 2.911028732871072 1.3612e-08 au
  Orbit Determination Parameters
   # obs. used (total)      547  
   data-arc span      17013 days (46.58 yr)  
   first obs. used      1973-09-24  
   last obs. used      2020-04-23  
   planetary ephem.      DE431  
   SB-pert. ephem.      SB431-N16  
   condition code      0  
   norm. resid. RMS      .55559  
   source      ORB  
   producer      Otto Matic  
   solution date      2020-May-20 15:33:21  

Additional Information
 Earth MOID = 1.25669 au 
 Jupiter MOID = 2.58063 au 
 T_jup = 3.370 
[ show covariance matrix ]

Ephemeris | Orbit Diagram | Orbital Elements | Mission Design | Physical Parameters | Discovery Circumstances ]

Physical Parameter Table
Parameter Symbol Value Units Sigma Reference Notes
absolute magnitude H 16.0   n/a MPO453281  

85076 (1451 T-2)          Discovered 1973-Sep-30 by van Houten, C. J., van Houten-Groeneveld, I., Gehrels, T. at Palomar
Reference: 20040504/Numbers.arcLast Updated: 2004-07-16

Alternate Designations
 1451 T-2 = 2002 VB38 
Ephemeris | Orbit Diagram | Orbital Elements | Mission Design | Physical Parameters | Discovery Circumstances ]
ABOUT SSD CREDITS/AWARDS PRIVACY/COPYRIGHT GLOSSARY LINKS
FirstGov 2020-Sep-23 20:20 UT
(server date/time)  
NASA Home Page
Site Manager:   Ryan S. Park
Webmaster  Alan B. Chamberlin